CSN7701 ZBOW-ZLXN

Flight info

Callsign CSN7701
Flight time N/A
Altitude 34100
Route SANID2T SANID W220 NIRUV B215 VENIV W198 BUKPU DCT UPVOP UPV19A
Aircraft A321/M-SDE3FGHIRWY/LB1

Departure

Time N/A
Airport Baotou Donghe International Airport (ZBOW)

Arrival

Time 2026-04-17 04:27
Airport Xining Caojiabao International Airport (ZLXN)
Time Latitude Longitude Altitude Speed Heading
2026-04-17 04:26 36.52583 102.04499 7173 ft 0 kts 202°
2026-04-17 04:31 36.52594 102.04504 7161 ft 3 kts 190°
2026-04-17 04:32 36.52614 102.04505 7164 ft 3 kts 172°
2026-04-17 04:32 36.52627 102.04503 7165 ft 1 kts 175°
2026-04-17 04:34 36.52621 102.04507 7165 ft 2 kts 149°
2026-04-17 04:34 36.52615 102.04538 7167 ft 5 kts 88°
2026-04-17 04:35 36.52648 102.04582 7161 ft 9 kts 37°
2026-04-17 04:35 36.52659 102.04664 7165 ft 12 kts 107°
2026-04-17 04:35 36.52629 102.04777 7167 ft 16 kts 109°
2026-04-17 04:35 36.52589 102.04918 7169 ft 19 kts 110°
2026-04-17 04:36 36.52543 102.05081 7163 ft 21 kts 108°
2026-04-17 04:36 36.52492 102.05265 7171 ft 24 kts 110°
2026-04-17 04:36 36.52435 102.05469 7168 ft 26 kts 109°
2026-04-17 04:36 36.52374 102.05692 7161 ft 28 kts 109°
2026-04-17 04:37 36.52339 102.05857 7170 ft 16 kts 76°
2026-04-17 04:37 36.52423 102.05925 7165 ft 16 kts 21°
2026-04-17 04:37 36.52492 102.05890 7167 ft 12 kts 294°
2026-04-17 04:37 36.52526 102.05771 7170 ft 25 kts 289°
2026-04-17 04:38 36.52664 102.05272 7165 ft 95 kts 289°
2026-04-17 04:38 36.52947 102.04247 7170 ft 153 kts 289°
2026-04-17 04:38 36.53348 102.02809 7270 ft 190 kts 289°
2026-04-17 04:38 36.53768 102.01275 8033 ft 186 kts 288°
2026-04-17 04:39 36.54176 101.99700 8367 ft 200 kts 287°
2026-04-17 04:39 36.54617 101.97978 8510 ft 218 kts 288°
2026-04-17 04:39 36.55097 101.96122 8638 ft 234 kts 288°
2026-04-17 04:39 36.55617 101.94119 8799 ft 252 kts 288°
2026-04-17 04:40 36.56165 101.92020 9350 ft 257 kts 288°
2026-04-17 04:40 36.56635 101.89827 9865 ft 273 kts 273°
2026-04-17 04:40 36.56249 101.87456 10074 ft 295 kts 242°
2026-04-17 04:40 36.54809 101.85541 10250 ft 318 kts 211°
2026-04-17 04:41 36.52639 101.84695 10416 ft 342 kts 183°
2026-04-17 04:41 36.50266 101.85246 10701 ft 358 kts 155°
2026-04-17 04:41 36.48298 101.87144 11225 ft 365 kts 129°
2026-04-17 04:41 36.46923 101.89820 11822 ft 370 kts 121°
2026-04-17 04:42 36.45598 101.92593 12404 ft 375 kts 121°
2026-04-17 04:42 36.44257 101.95404 12985 ft 381 kts 122°
2026-04-17 04:42 36.42717 101.98083 13564 ft 384 kts 135°
2026-04-17 04:42 36.40688 102.00312 14128 ft 386 kts 141°
2026-04-17 04:43 36.38621 102.02476 14677 ft 390 kts 141°
2026-04-17 04:43 36.36535 102.04655 15235 ft 393 kts 141°
2026-04-17 04:43 36.34558 102.07018 15767 ft 398 kts 130°
2026-04-17 04:43 36.33114 102.09959 16352 ft 403 kts 113°
2026-04-17 04:44 36.32361 102.13312 16917 ft 407 kts 96°
2026-04-17 04:44 36.32372 102.16821 17478 ft 409 kts 80°
2026-04-17 04:44 36.33116 102.20216 18024 ft 410 kts 68°
2026-04-17 04:44 36.34082 102.23556 18548 ft 412 kts 69°
2026-04-17 04:45 36.35050 102.26914 18998 ft 415 kts 68°
2026-04-17 04:45 36.36020 102.30295 19460 ft 417 kts 69°
2026-04-17 04:45 36.36990 102.33703 19893 ft 420 kts 69°
2026-04-17 04:45 36.37961 102.37133 20368 ft 423 kts 69°
2026-04-17 04:46 36.38937 102.40584 20817 ft 425 kts 69°
2026-04-17 04:46 36.39917 102.44056 21270 ft 428 kts 69°
2026-04-17 04:46 36.40903 102.47553 21728 ft 431 kts 69°
2026-04-17 04:46 36.41897 102.51075 22171 ft 433 kts 69°
2026-04-17 04:47 36.42898 102.54619 22612 ft 436 kts 69°
2026-04-17 04:47 36.43905 102.58184 23042 ft 439 kts 69°
2026-04-17 04:47 36.44772 102.61824 23468 ft 442 kts 77°
2026-04-17 04:47 36.45173 102.65618 23828 ft 445 kts 87°
2026-04-17 04:48 36.45077 102.69471 24168 ft 448 kts 97°
2026-04-17 04:48 36.44606 102.73312 24514 ft 451 kts 99°
2026-04-17 04:48 36.44116 102.77170 24875 ft 453 kts 99°
2026-04-17 04:48 36.43629 102.81045 25223 ft 456 kts 99°
2026-04-17 04:49 36.43142 102.84942 25577 ft 458 kts 98°
2026-04-17 04:49 36.42634 102.88857 25922 ft 460 kts 99°
2026-04-17 04:49 36.42072 102.92785 26278 ft 463 kts 100°
2026-04-17 04:49 36.41471 102.96719 26617 ft 465 kts 101°
2026-04-17 04:50 36.40853 103.00664 26957 ft 467 kts 101°
2026-04-17 04:50 36.40221 103.04684 27302 ft 469 kts 101°
2026-04-17 04:50 36.39599 103.08671 27643 ft 472 kts 101°
2026-04-17 04:50 36.38982 103.12678 27965 ft 474 kts 101°
2026-04-17 04:51 36.38368 103.16700 28291 ft 476 kts 101°
2026-04-17 04:51 36.37752 103.20744 28604 ft 478 kts 101°
2026-04-17 04:51 36.37136 103.24797 28911 ft 479 kts 101°
2026-04-17 04:51 36.36518 103.28869 29185 ft 481 kts 101°
2026-04-17 04:52 36.35895 103.32956 29455 ft 483 kts 101°
2026-04-17 04:52 36.35266 103.37048 29779 ft 483 kts 101°
2026-04-17 04:52 36.34635 103.41135 30148 ft 482 kts 101°
2026-04-17 04:52 36.34001 103.45215 30463 ft 481 kts 101°
2026-04-17 04:53 36.33369 103.49285 30757 ft 481 kts 101°
2026-04-17 04:53 36.32737 103.53355 31053 ft 481 kts 101°
2026-04-17 04:53 36.32104 103.57426 31340 ft 481 kts 101°
2026-04-17 04:55 36.27629 103.85851 33139 ft 477 kts 101°
2026-04-17 04:55 36.26358 103.93861 33127 ft 472 kts 101°
2026-04-17 04:56 36.25082 104.01823 33125 ft 471 kts 101°
2026-04-17 04:56 36.23798 104.09779 33125 ft 471 kts 101°
2026-04-17 04:57 36.22717 104.16445 33120 ft 471 kts 101°
2026-04-17 04:57 36.21145 104.24306 33118 ft 471 kts 114°
2026-04-17 04:58 36.19538 104.27810 33116 ft 468 kts 128°
2026-04-17 04:58 36.17320 104.30734 33115 ft 465 kts 143°
2026-04-17 04:58 36.14641 104.32927 33114 ft 461 kts 156°
2026-04-17 04:58 36.11661 104.34307 33110 ft 456 kts 169°
2026-04-17 04:59 36.08540 104.34823 33107 ft 451 kts 182°
2026-04-17 04:59 36.05405 104.34874 33106 ft 451 kts 182°
2026-04-17 04:59 35.99128 104.34973 33106 ft 452 kts 182°
2026-04-17 05:00 35.92836 104.35082 33110 ft 452 kts 182°
2026-04-17 05:00 35.86540 104.35191 33116 ft 453 kts 182°
2026-04-17 05:01 35.80238 104.35297 33118 ft 453 kts 182°
2026-04-17 05:01 35.73933 104.35398 33123 ft 453 kts 182°
2026-04-17 05:02 35.67632 104.35498 33123 ft 453 kts 182°
2026-04-17 05:02 35.61326 104.35601 33128 ft 453 kts 182°
2026-04-17 05:03 35.54976 104.35695 33124 ft 453 kts 182°
2026-04-17 05:03 35.48673 104.35796 33130 ft 453 kts 182°
2026-04-17 05:04 35.42369 104.35899 33131 ft 453 kts 182°
2026-04-17 05:04 35.36060 104.36005 33143 ft 453 kts 182°
2026-04-17 05:05 35.29757 104.36112 33146 ft 453 kts 182°
2026-04-17 05:05 35.23451 104.36203 33146 ft 453 kts 182°
2026-04-17 05:06 35.17152 104.36300 33143 ft 453 kts 182°
2026-04-17 05:06 35.10854 104.36397 33139 ft 452 kts 182°
2026-04-17 05:07 35.04556 104.36493 33135 ft 452 kts 182°
2026-04-17 05:07 34.98264 104.36591 33133 ft 452 kts 182°
2026-04-17 05:08 34.91970 104.36699 33128 ft 452 kts 182°
2026-04-17 05:08 34.85679 104.36803 33126 ft 452 kts 182°
2026-04-17 05:09 34.79391 104.36902 33129 ft 452 kts 182°
2026-04-17 05:09 34.73101 104.36997 33128 ft 452 kts 182°
2026-04-17 05:10 34.66772 104.37097 33130 ft 452 kts 182°
2026-04-17 05:10 34.60483 104.37200 33133 ft 452 kts 182°
2026-04-17 05:11 34.54190 104.37300 33130 ft 452 kts 182°
2026-04-17 05:11 34.47899 104.37396 33137 ft 452 kts 182°
2026-04-17 05:12 34.41610 104.37491 33142 ft 452 kts 182°
2026-04-17 05:12 34.35318 104.37589 33125 ft 452 kts 182°
2026-04-17 05:13 34.29027 104.37692 33130 ft 452 kts 182°
2026-04-17 05:13 34.22736 104.37795 33130 ft 452 kts 182°
2026-04-17 05:14 34.16445 104.37889 33114 ft 452 kts 182°
2026-04-17 05:14 34.10149 104.37980 33109 ft 453 kts 182°
2026-04-17 05:15 34.03852 104.38074 33104 ft 453 kts 182°
2026-04-17 05:15 33.97546 104.38179 33108 ft 453 kts 182°
2026-04-17 05:16 33.91238 104.38285 33104 ft 454 kts 182°
2026-04-17 05:16 33.84926 104.38381 33104 ft 454 kts 183°
2026-04-17 05:17 33.78609 104.38465 33111 ft 454 kts 183°
2026-04-17 05:17 33.72292 104.38552 33108 ft 454 kts 183°
2026-04-17 05:18 33.65929 104.38654 33103 ft 454 kts 182°
2026-04-17 05:18 33.59656 104.39901 33104 ft 463 kts 164°
2026-04-17 05:19 33.53877 104.43389 33108 ft 468 kts 152°
2026-04-17 05:19 33.48286 104.47409 33095 ft 468 kts 152°
2026-04-17 05:20 33.42687 104.51418 33104 ft 470 kts 152°
2026-04-17 05:20 33.36738 104.54450 33107 ft 462 kts 170°
2026-04-17 05:21 33.30434 104.55365 33107 ft 455 kts 181°
2026-04-17 05:21 33.24108 104.55763 33102 ft 456 kts 181°
2026-04-17 05:22 33.17770 104.56170 33100 ft 456 kts 181°
2026-04-17 05:22 33.11431 104.56582 33099 ft 457 kts 181°
2026-04-17 05:23 33.05073 104.56985 33109 ft 458 kts 181°
2026-04-17 05:23 32.98699 104.57383 33113 ft 459 kts 181°
2026-04-17 05:24 32.92318 104.57793 33117 ft 459 kts 181°
2026-04-17 05:24 32.85936 104.58201 33122 ft 459 kts 181°
2026-04-17 05:25 32.79502 104.58605 33122 ft 460 kts 182°
2026-04-17 05:25 32.73103 104.58988 33121 ft 461 kts 182°
2026-04-17 05:26 32.66705 104.59277 33124 ft 460 kts 183°
2026-04-17 05:26 32.60297 104.59528 33135 ft 461 kts 183°
2026-04-17 05:27 32.53874 104.59801 33132 ft 462 kts 183°
2026-04-17 05:27 32.47443 104.60098 33137 ft 463 kts 183°
2026-04-17 05:28 32.41065 104.60401 33128 ft 464 kts 183°
2026-04-17 05:28 32.34544 104.60732 33131 ft 464 kts 183°
2026-04-17 05:29 32.28093 104.61095 33142 ft 465 kts 183°
2026-04-17 05:29 32.21628 104.61458 33136 ft 465 kts 183°
2026-04-17 05:30 32.15168 104.61812 33133 ft 465 kts 183°
2026-04-17 05:30 32.08694 104.62169 32691 ft 466 kts 183°
2026-04-17 05:31 32.05454 104.62346 32425 ft 467 kts 183°
2026-04-17 05:31 32.03260 104.62465 32250 ft 467 kts 183°
2026-04-17 05:31 32.00005 104.62640 31992 ft 469 kts 183°
2026-04-17 05:31 31.95685 104.62872 31650 ft 470 kts 184°
2026-04-17 05:32 31.93473 104.62990 31340 ft 471 kts 183°
2026-04-17 05:32 31.90192 104.63165 30751 ft 473 kts 183°
2026-04-17 05:32 31.86901 104.63342 30151 ft 474 kts 182°
2026-04-17 05:32 31.83596 104.63522 29445 ft 477 kts 182°
2026-04-17 05:33 31.80280 104.63703 28756 ft 478 kts 182°
2026-04-17 05:33 31.76949 104.63885 28091 ft 479 kts 182°
2026-04-17 05:33 31.73627 104.64080 27431 ft 476 kts 182°
2026-04-17 05:33 31.70332 104.64287 26793 ft 472 kts 182°
2026-04-17 05:34 31.67063 104.64501 26171 ft 468 kts 181°
2026-04-17 05:34 31.63826 104.64712 25562 ft 464 kts 182°
2026-04-17 05:34 31.60611 104.64920 24962 ft 461 kts 182°
2026-04-17 05:34 31.57423 104.65123 24375 ft 457 kts 182°
2026-04-17 05:35 31.54263 104.65319 23798 ft 453 kts 182°
2026-04-17 05:35 31.51124 104.65513 23154 ft 450 kts 182°
2026-04-17 05:35 31.48014 104.65706 22488 ft 445 kts 181°
2026-04-17 05:35 31.44935 104.65898 21836 ft 441 kts 181°
2026-04-17 05:36 31.41902 104.65918 21200 ft 432 kts 189°
2026-04-17 05:36 31.38934 104.65367 20567 ft 421 kts 199°
2026-04-17 05:36 31.36222 104.64315 19979 ft 412 kts 208°
2026-04-17 05:36 31.33851 104.63040 19416 ft 408 kts 210°
2026-04-17 05:37 31.31288 104.61650 18831 ft 405 kts 210°
2026-04-17 05:37 31.28737 104.60275 18254 ft 402 kts 209°
2026-04-17 05:37 31.26208 104.58916 17592 ft 399 kts 209°
2026-04-17 05:37 31.23695 104.57567 16944 ft 395 kts 208°
2026-04-17 05:38 31.21209 104.56233 16309 ft 392 kts 208°
2026-04-17 05:38 31.18741 104.54909 15695 ft 389 kts 208°
2026-04-17 05:38 31.16297 104.53601 15096 ft 385 kts 207°
2026-04-17 05:38 31.13876 104.52305 14492 ft 381 kts 207°
2026-04-17 05:39 31.11480 104.51023 13902 ft 377 kts 206°
2026-04-17 05:39 31.09110 104.49754 13259 ft 373 kts 206°
2026-04-17 05:39 31.06763 104.48497 12628 ft 369 kts 206°
2026-04-17 05:39 31.04440 104.47260 12001 ft 365 kts 205°
2026-04-17 05:40 31.02275 104.46170 11425 ft 361 kts 204°
2026-04-17 05:40 30.99948 104.45048 10816 ft 358 kts 203°
2026-04-17 05:40 30.97652 104.43969 10226 ft 353 kts 202°
2026-04-17 05:40 30.95386 104.42912 9613 ft 349 kts 202°
2026-04-17 05:41 30.93142 104.41860 8966 ft 345 kts 202°
2026-04-17 05:41 30.90934 104.40815 8338 ft 341 kts 202°
2026-04-17 05:41 30.88927 104.39460 8022 ft 327 kts 223°
2026-04-17 05:41 30.87749 104.37302 7899 ft 312 kts 252°
2026-04-17 05:42 30.87662 104.34858 7772 ft 300 kts 281°
2026-04-17 05:42 30.88366 104.32621 7647 ft 290 kts 295°
2026-04-17 05:42 30.89318 104.30609 7517 ft 274 kts 298°
2026-04-17 05:42 30.90244 104.28756 7392 ft 250 kts 297°
2026-04-17 05:43 30.91053 104.27009 7271 ft 241 kts 295°
2026-04-17 05:43 30.91781 104.25281 7149 ft 236 kts 292°
2026-04-17 05:43 30.92456 104.23552 7022 ft 234 kts 291°
2026-04-17 05:43 30.93100 104.21814 6902 ft 233 kts 290°
2026-04-17 05:44 30.93727 104.20071 6794 ft 234 kts 290°
2026-04-17 05:44 30.94344 104.18331 6658 ft 232 kts 290°
2026-04-17 05:44 30.94955 104.16588 6543 ft 232 kts 290°
2026-04-17 05:44 30.95473 104.14826 6424 ft 228 kts 275°
2026-04-17 05:45 30.95281 104.13038 6299 ft 223 kts 244°
2026-04-17 05:45 30.94345 104.11637 6165 ft 222 kts 216°
2026-04-17 05:45 30.92946 104.10861 6035 ft 224 kts 202°
2026-04-17 05:45 30.91489 104.10211 5904 ft 224 kts 202°
2026-04-17 05:46 30.90035 104.09559 5788 ft 224 kts 202°
2026-04-17 05:46 30.88580 104.08905 5664 ft 224 kts 201°
2026-04-17 05:46 30.87248 104.08305 5549 ft 222 kts 202°
2026-04-17 05:46 30.85809 104.07657 5425 ft 220 kts 202°
2026-04-17 05:47 30.84378 104.07011 5290 ft 221 kts 201°
2026-04-17 05:47 30.82947 104.06365 5173 ft 221 kts 201°
2026-04-17 05:47 30.81512 104.05718 5072 ft 221 kts 202°
2026-04-17 05:47 30.80083 104.05073 4991 ft 219 kts 201°
2026-04-17 05:48 30.78662 104.04426 4997 ft 220 kts 202°
2026-04-17 05:48 30.77238 104.03762 4995 ft 221 kts 202°
2026-04-17 05:48 30.75827 104.03099 5017 ft 212 kts 202°
2026-04-17 05:48 30.74488 104.02467 4786 ft 204 kts 202°
2026-04-17 05:49 30.73169 104.01849 4524 ft 204 kts 201°
2026-04-17 05:49 30.71860 104.01237 4258 ft 202 kts 201°
2026-04-17 05:49 30.70562 104.00630 3996 ft 201 kts 201°
2026-04-17 05:49 30.69257 104.00021 3741 ft 197 kts 201°
2026-04-17 05:50 30.68030 103.99447 3495 ft 184 kts 201°
2026-04-17 05:50 30.66890 103.98915 3282 ft 168 kts 201°
2026-04-17 05:50 30.65859 103.98433 3058 ft 153 kts 200°
2026-04-17 05:50 30.64900 103.97986 2863 ft 144 kts 200°
2026-04-17 05:51 30.63982 103.97558 2664 ft 141 kts 199°
2026-04-17 05:51 30.63069 103.97132 2472 ft 140 kts 200°
2026-04-17 05:51 30.62160 103.96709 2282 ft 141 kts 201°
2026-04-17 05:51 30.61259 103.96287 2092 ft 139 kts 200°
2026-04-17 05:52 30.60362 103.95866 1898 ft 139 kts 201°
2026-04-17 05:52 30.59458 103.95444 1691 ft 140 kts 201°
2026-04-17 05:52 30.58612 103.95046 1649 ft 118 kts 200°
2026-04-17 05:52 30.57996 103.94769 1648 ft 70 kts 202°
2026-04-17 05:53 30.57694 103.94629 1647 ft 32 kts 200°
2026-04-17 05:53 30.57478 103.94606 1646 ft 31 kts 174°
2026-04-17 05:53 30.57327 103.94682 1647 ft 21 kts 118°
2026-04-17 05:53 30.57298 103.94831 1647 ft 14 kts 55°
2026-04-17 05:54 30.57360 103.94910 1647 ft 13 kts 96°
2026-04-17 05:54 30.57332 103.95006 1647 ft 0 kts 111°
2026-04-17 05:54 30.57331 103.95007 1647 ft 0 kts 111°